Temp
23 21 20 19 20 20 19 20 19 19 19 19 18 18 18 18 18 18 18 18 19 18 17 17 18 17 17 17 17 17 18 18 17 16 16 17 17 17 17 17 18 17 17
23 21 20 20 20 19 19 20 19 19 19 18 18 18 18 18 18 18 18 18 18 18 17 17 17 17 17 17 17 17 17 17 17 16 16 17 17 17 17 17 17 17 17
23 21 20 20 21 20 19 19 19 19 18 18 18 18 18 18 18 18 18 18 18 17 17 16 16 16 17 17 17 18 18 17 17 16 16 18 18 18 17 17 17 17 17
24 22 20 20 21 20 20 20 19 18 18 18 18 18 19 18 19 19 18 18 17 17 16 16 16 16 16 17 17 17 17 17 17 16 17 18 18 17 17 17 17 17 17
24 23 22 21 21 20 21 20 19 18 18 18 17 18 18 18 18 18 19 18 18 17 17 16 16 16 16 16 16 16 16 17 17 17 17 18 18 18 17 17 16 17 17
24 23 22 22 21 20 20 20 19 19 18 18 17 18 18 17 18 18 18 19 18 17 17 16 16 16 16 16 16 16 16 16 16 17 17 17 18 17 17 17 16 16 16
25 23 21 21 20 20 20 19 20 19 19 18 18 18 17 17 18 18 18 18 18 17 17 16 16 16 16 16 16 16 16 17 17 17 17 18 17 17 17 17 16 16 16
25 23 21 21 20 20 20 20 20 19 19 19 18 18 17 17 17 18 18 18 17 18 17 17 17 16 16 16 16 16 16 16 16 16 17 17 18 17 17 17 16 16 16
24 23 21 21 20 20 20 19 19 19 19 19 18 18 18 18 18 18 18 18 18 18 17 17 16 16 16 16 16 16 16 16 16 17 17 17 17 17 17 17 16 16 16
24 23 23 21 20 20 20 20 20 19 19 18 18 18 18 18 18 18 18 18 18 17 18 18 17 16 16 16 16 17 17 17 16 17 17 18 18 17 18 17 16 16 16
23 23 23 23 21 21 20 20 20 19 19 19 18 18 18 19 19 18 18 18 18 18 18 18 17 17 17 17 18 18 18 17 17 17 17 18 18 18 18 17 17 16 16
24 23 23 23 22 22 22 21 20 20 19 19 19 19 19 19 19 19 19 18 18 18 18 18 18 18 18 18 18 18 18 18 18 17 18 18 18 18 17 17 17 16 16
25 24 23 23 23 22 21 21 21 21 20 20 20 20 19 19 19 19 19 19 18 18 18 18 18 18 18 18 18 18 18 18 18 18 18 18 18 18 18 17 17 16 16
26 25 23 23 22 22 21 21 21 21 20 20 20 20 19 19 19 19 19 19 19 19 19 19 19 19 19 19 19 19 19 19 19 19 18 18 18 18 18 18 17 17 16
26 25 24 22 22 21 21 20 20 21 20 20 20 19 19 19 19 19 19 19 19 19 18 18 18 18 19 19 19 19 19 19 19 19 19 19 19 18 18 18 17 17 17
26 25 24 23 22 21 20 20 20 20 20 20 19 19 19 18 18 19 19 18 18 18 18 18 18 18 18 18 18 18 18 18 18 18 18 18 19 19 19 19 18 17 17
24 23 23 23 22 21 20 20 20 19 19 19 19 19 19 18 18 18 18 18 18 18 18 18 18 18 18 18 18 18 19 18 18 18 18 18 19 19 19 19 19 18 18
23 22 21 22 22 21 20 20 20 19 19 19 18 18 17 17 18 18 17 17 17 18 17 17 17 17 17 16 17 17 17 18 17 18 18 18 19 18 19 19 19 19 19
22 21 21 20 21 21 20 19 19 19 18 18 17 17 17 17 17 17 17 16 16 16 16 16 15 15 15 15 15 15 16 16 16 17 17 17 17 18 18 18 18 19 19
21 21 20 20 20 20 19 19 18 17 17 17 16 16 16 16 16 16 15 15 15 15 15 14 14 14 14 14 14 15 14 15 16 15 15 16 16 16 17 17 17 17 17
21 21 20 20 20 19 19 18 17 16 16 15 15 15 15 15 14 15 14 14 14 14 13 13 13 13 13 13 13 12 14 14 15 15 15 15 16 15 16 16 16 16 15
20 20 20 20 19 19 18 18 17 16 15 15 15 14 14 14 14 13 13 13 13 13 12 12 12 12 12 12 12 11 9 12 13 13 13 13 13 14 14 15 14 15 15
19 19 18 18 18 18 17 17 16 16 16 15 14 14 13 13 13 12 12 12 12 12 11 11 11 11 11 11 11 10 8 8 10 12 12 12 12 13 12 13 13 13 13
18 18 18 18 18 18 17 17 17 16 15 15 14 14 13 13 12 11 11 11 10 10 10 10 10 10 10 10 10 10 10 10 9 9 11 10 11 11 11 11 11 11 11
18 17 17 17 18 18 17 17 16 15 15 15 14 14 13 12 11 11 10 10 10 9 9 9 9 9 9 9 9 9 9 9 9 7 7 8 9 9 10 10 9 10 10
17 16 16 16 16 16 16 16 15 15 14 14 13 13 13 12 11 10 9 9 9 8 8 8 8 8 8 9 9 8 8 7 7 7 7 7 7 8 9 8 8 8 8
Height
762 764 767 770 773 776 778 779 780 782 782 783 784 784 784 785 786 787 788 789 789 790 790 789 789 788 787 787 787 787 787 787 787 788 787 785 786 787 787 786 787 788 789
760 763 767 770 773 776 778 779 780 782 782 784 784 785 786 786 786 787 787 789 789 791 791 790 789 788 788 788 787 787 787 787 787 786 786 785 785 786 787 787 787 787 788
761 764 767 770 773 775 777 779 780 782 783 784 785 785 786 786 787 787 786 788 789 791 791 789 789 788 788 787 787 787 787 787 786 785 784 784 783 783 784 785 785 787 788
762 765 768 770 773 775 777 779 780 782 783 784 785 786 786 786 787 787 787 788 788 789 789 789 788 787 787 787 788 787 787 786 785 784 784 783 783 783 783 784 784 784 785
763 765 767 770 773 775 777 778 780 782 782 784 785 785 785 786 786 786 787 788 788 788 788 788 788 787 787 787 787 787 786 786 784 783 783 783 783 783 782 783 783 783 783
763 763 766 769 772 774 775 777 778 780 782 783 784 785 785 785 784 785 786 787 788 788 788 788 787 787 786 786 786 785 785 783 782 782 781 782 781 781 781 781 781 781 781
762 762 765 767 770 772 774 776 778 779 781 783 783 784 785 785 784 784 785 786 787 787 787 787 786 785 785 784 783 783 781 781 780 779 778 778 778 777 778 778 778 778 778
762 762 765 766 769 772 773 775 777 778 780 781 782 784 785 784 784 783 784 786 786 786 785 784 784 783 783 782 781 781 780 779 778 777 776 775 775 775 774 774 774 773 774
761 763 764 766 768 771 773 773 776 778 779 780 781 782 783 783 783 784 784 784 784 784 783 782 782 781 780 780 779 778 777 776 775 773 772 771 771 771 771 771 770 770 770
761 763 764 765 768 770 771 772 775 776 778 780 780 780 781 782 783 783 784 783 783 782 782 781 780 779 778 777 776 775 775 773 772 770 769 768 768 768 768 768 767 766 766
760 761 763 765 766 768 769 771 774 775 777 777 779 780 780 781 781 782 783 782 782 781 780 779 779 778 776 775 774 773 772 770 768 767 767 766 766 766 766 765 764 764 763
757 759 761 764 766 768 770 770 773 773 775 776 777 779 780 781 782 782 782 782 781 780 779 779 778 776 775 773 772 771 769 768 766 765 764 764 763 763 762 761 760 759 758
751 755 759 762 764 765 768 770 772 773 774 776 778 779 780 781 781 781 782 781 780 779 779 777 777 775 773 772 771 769 768 766 765 764 762 760 759 759 758 757 756 755 754
749 753 756 760 762 764 767 769 771 773 774 776 778 779 780 781 781 781 781 781 780 779 779 778 777 775 773 771 768 767 766 764 762 760 757 756 755 754 753 752 751 750 749
747 751 755 757 760 763 765 767 770 772 773 775 776 779 780 780 781 780 780 780 780 779 778 777 775 774 772 770 768 766 763 761 759 756 754 752 750 749 747 746 745 744 743
746 749 752 755 758 761 764 767 770 772 773 774 776 778 779 780 780 780 780 779 778 778 777 776 774 773 771 769 766 763 761 759 756 753 752 748 746 744 742 740 738 736 735
745 747 751 754 756 760 763 766 769 771 773 774 776 778 779 779 778 779 779 779 779 778 777 775 774 772 769 767 764 761 758 755 753 750 748 744 741 739 736 734 731 731 729
746 748 750 751 755 759 762 766 769 771 773 775 776 777 778 779 778 777 778 779 778 777 777 775 773 771 769 766 763 760 756 753 750 747 745 741 738 735 732 730 729 726 723
746 748 749 751 755 758 762 765 768 771 772 774 776 778 780 780 779 779 779 779 778 777 776 775 774 771 767 764 761 758 756 752 748 745 742 739 736 732 729 726 725 722 719
747 748 750 752 755 758 762 766 768 771 773 776 779 781 781 781 780 780 780 780 779 778 776 775 773 771 769 766 762 758 754 749 747 744 740 737 733 730 727 724 721 719 716
748 749 751 754 757 760 763 766 770 773 776 779 780 782 782 781 781 780 780 780 779 778 777 776 775 772 769 766 762 756 751 750 747 741 738 735 732 729 726 724 720 717 714
749 749 752 755 757 760 763 767 771 775 778 780 782 783 783 782 781 781 781 780 780 779 777 776 775 772 770 767 763 758 754 748 746 746 742 737 733 729 726 723 719 715 711
750 752 754 756 759 761 764 768 772 776 780 782 783 784 784 783 782 782 781 781 780 779 778 777 775 773 770 767 766 765 760 755 746 740 739 735 732 728 726 723 720 714 711
753 755 758 760 762 764 767 769 772 775 779 782 783 784 783 783 783 782 782 781 780 779 778 777 775 773 772 769 767 766 764 759 753 738 733 734 732 728 724 721 717 713 708
756 757 760 762 763 765 767 770 772 776 779 781 782 783 783 783 782 782 781 780 779 778 777 776 775 773 772 770 767 764 761 757 754 749 731 729 728 726 722 718 713 710 705
758 760 762 764 765 767 769 772 775 777 779 781 782 783 783 783 783 782 780 779 779 778 777 776 775 773 771 768 765 762 759 756 752 747 738 728 722 720 718 715 711 708 702
Wind_Speed
11 12 15 13 11 10 10 8 6 6 5 5 6 7 9 8 6 6 6 5 8 7 8 9 7 10 10 6 5 4 4 8 9 9 11 7 4 3 4 4 3 5 3
14 13 15 13 12 10 10 8 6 4 4 5 6 5 4 5 5 5 4 4 6 6 7 7 9 9 10 8 3 3 5 5 8 11 11 6 2 3 1 2 5 4 5
14 13 15 13 10 10 9 7 4 3 4 5 4 3 3 1 2 4 5 4 4 5 7 8 8 6 7 9 6 4 6 5 10 10 8 4 4 8 7 7 5 6 7
14 10 14 14 10 8 9 6 4 4 3 3 3 1 1 1 2 2 2 1 1 5 6 7 8 6 6 5 6 6 7 7 9 10 5 7 4 6 7 5 5 6 6
13 12 15 11 9 9 9 5 5 4 2 1 2 3 1 1 4 5 1 2 3 5 6 5 5 6 5 5 6 7 8 9 10 9 9 6 6 4 5 5 8 7 8
13 12 15 12 11 11 8 6 4 4 2 1 1 4 1 5 5 5 2 1 4 5 7 5 5 5 5 5 6 6 7 8 9 9 10 9 10 8 10 8 9 10 10
14 11 12 15 14 11 9 7 3 4 2 1 1 2 1 6 3 4 4 1 2 6 7 6 6 6 7 8 7 8 8 9 12 13 11 11 11 10 11 12 12 12 13
12 10 10 16 13 12 9 6 4 5 4 1 1 3 2 3 6 2 4 2 2 5 6 9 8 8 9 8 8 10 11 12 12 12 14 15 14 13 15 16 16 16 16
11 10 9 13 13 11 10 9 7 5 5 3 3 2 6 7 3 3 2 4 5 7 8 10 11 10 10 10 11 13 14 15 16 16 16 17 17 17 18 19 19 19 19
9 11 11 12 10 10 10 11 9 7 6 5 5 4 5 6 5 5 5 7 8 10 12 12 12 12 12 12 14 15 16 16 18 17 15 17 17 19 20 20 21 21 22
10 11 12 12 12 12 9 11 9 8 7 7 7 3 3 2 2 2 5 8 11 12 12 12 12 12 13 15 14 11 15 17 17 15 18 20 20 20 22 23 23 24 25
15 14 13 13 13 11 8 8 5 7 5 4 2 4 2 0 3 6 8 8 8 9 12 10 12 13 13 13 13 14 16 18 18 19 20 23 24 23 23 24 25 27 27
18 17 16 15 13 13 11 8 8 8 5 6 5 4 3 3 2 5 6 8 9 10 12 12 15 15 15 15 19 19 19 20 23 26 26 26 27 26 26 27 28 28 29
14 15 16 15 15 13 11 11 8 7 7 5 5 4 3 3 3 4 6 8 8 8 10 13 13 16 18 18 19 19 21 23 24 26 28 28 28 30 29 29 30 30 31
13 13 13 14 14 13 11 8 7 6 7 5 4 1 2 2 3 4 6 7 9 9 12 13 16 17 19 19 19 20 22 24 25 26 27 27 28 30 31 31 29 30 30
10 13 13 13 14 13 11 9 8 5 4 5 3 1 0 2 3 5 7 9 9 13 13 14 15 16 17 18 20 20 20 21 25 26 26 27 29 30 29 29 29 29 29
8 6 6 10 13 13 12 10 7 6 6 6 5 4 3 3 3 5 8 11 12 11 13 12 15 17 19 21 22 24 23 21 24 27 27 29 31 30 29 29 30 27 28
7 6 5 12 14 14 14 11 10 11 10 9 8 10 10 10 10 11 11 10 13 13 15 15 19 20 21 23 25 24 24 27 26 27 29 32 27 23 23 24 27 27 31
9 10 11 13 16 16 17 15 16 15 17 19 19 16 13 12 15 14 14 12 12 14 15 17 19 20 24 25 23 26 25 25 30 30 24 23 30 29 28 28 27 28 27
14 15 18 19 20 20 19 20 22 22 21 20 18 16 15 15 14 12 13 14 15 15 16 17 19 20 20 24 26 23 26 25 26 23 26 32 29 32 29 26 29 26 31
17 20 21 23 22 22 22 24 22 22 20 19 18 15 15 15 15 16 14 14 15 15 16 16 18 19 19 23 23 25 19 18 22 33 37 31 33 29 33 34 28 34 33
18 20 20 21 22 23 23 23 23 22 18 17 16 15 14 15 15 15 14 13 13 14 14 16 18 18 19 22 17 17 5 16 19 25 22 33 23 34 33 33 39 42 37
20 21 20 22 23 23 25 24 23 21 18 15 13 12 12 14 14 14 13 12 12 12 13 14 16 18 20 21 20 11 4 4 14 9 26 20 33 27 34 33 33 32 40
18 20 21 21 21 21 20 21 20 18 17 13 12 10 8 11 12 12 11 10 10 9 12 14 15 16 17 19 20 15 20 23 8 10 7 30 25 27 30 28 35 29 34
18 21 21 22 22 20 20 20 20 18 15 12 10 9 7 7 7 11 10 10 10 12 13 14 15 16 17 19 19 19 22 20 23 9 15 13 24 25 26 30 29 37 33
18 20 21 22 20 19 19 18 17 16 13 12 10 9 10 8 7 11 10 10 10 12 14 15 16 17 18 19 21 20 22 14 15 14 12 15 17 25 25 29 27 35 30
Wind_Direction
145 153 156 156 158 157 160 150 133 113 83 67 84 85 84 103 77 64 42 41 26 12 8 9 32 36 39 69 85 60 8 338 344 336 329 323 300 293 319 231 299 309 229
142 150 153 153 152 154 156 152 131 111 72 73 82 116 92 92 60 32 40 62 31 5 15 0 0 20 27 29 25 5 328 335 340 321 314 320 277 264 224 250 291 301 337
134 147 152 149 152 161 165 158 135 116 94 96 102 102 56 127 38 25 66 68 21 1 346 348 343 343 355 8 358 339 306 325 328 328 325 331 335 231 212 252 259 285 312
137 135 157 149 162 164 162 147 131 130 115 103 129 101 135 212 199 65 28 59 324 6 1 353 354 344 339 325 327 345 334 306 318 328 354 339 326 214 226 240 258 252 263
136 147 163 150 154 156 161 141 130 137 117 89 187 202 294 334 242 232 293 344 325 347 1 358 350 359 343 330 314 310 314 310 318 341 330 293 290 270 229 257 260 261 259
139 158 157 157 168 166 173 156 141 125 108 103 169 219 338 345 309 222 164 300 296 341 350 356 343 334 330 329 314 306 294 284 298 307 298 294 276 270 266 267 268 263 268
145 155 170 175 179 179 177 170 181 142 117 112 60 183 8 349 340 227 209 275 2 340 335 342 321 310 303 291 291 284 288 293 274 274 274 256 278 259 256 258 257 259 261
145 150 168 179 185 181 180 176 182 166 159 166 58 219 240 290 25 53 210 196 264 299 309 302 310 303 294 292 286 282 282 289 281 277 273 273 259 261 259 258 255 254 253
156 164 171 177 182 185 186 185 198 190 201 218 220 284 246 254 274 343 165 225 255 271 285 294 299 298 288 283 283 280 278 281 281 279 270 266 269 262 263 262 259 257 254
167 172 180 178 188 188 192 201 205 204 212 229 251 274 285 257 249 280 288 269 272 282 290 287 290 290 287 283 278 280 281 284 284 284 275 273 268 262 261 263 263 260 257
188 189 185 182 184 196 210 202 197 210 224 235 258 246 339 92 249 276 247 270 286 290 292 295 299 303 309 299 298 287 284 281 293 281 274 277 273 269 268 267 267 266 264
197 200 196 189 187 188 188 193 211 219 227 218 171 241 19 2 242 229 279 305 324 330 322 321 323 321 310 310 310 306 297 290 285 276 279 274 274 271 269 270 269 268 265
193 193 198 197 193 190 191 193 204 198 191 221 199 211 224 273 326 320 325 323 330 322 325 330 318 315 311 304 289 292 285 284 281 280 278 277 274 272 271 270 270 270 269
175 185 190 198 198 194 192 191 198 187 192 189 197 209 233 262 286 320 312 312 318 320 315 316 313 316 309 311 313 309 301 293 289 285 282 280 279 277 274 273 272 272 275
168 177 188 196 198 195 189 188 192 191 190 188 193 197 242 298 314 331 331 323 336 339 338 337 327 321 320 317 314 310 310 303 299 294 291 290 286 282 281 278 274 274 276
170 170 188 193 193 187 188 182 181 180 143 153 121 174 294 317 333 341 343 2 344 347 337 335 343 337 330 326 320 318 311 307 304 303 301 300 296 293 288 286 283 274 274
104 135 176 182 183 179 169 166 156 152 123 103 106 72 61 64 36 29 25 25 11 7 3 360 352 344 338 334 328 322 316 312 315 307 303 302 299 296 290 283 282 287 280
119 138 178 186 165 162 156 147 143 119 115 102 95 94 73 66 65 79 58 40 24 13 7 2 354 345 340 335 330 328 327 321 319 312 310 307 315 332 326 307 295 293 292
118 119 129 131 146 144 135 123 110 110 104 96 90 86 78 75 71 63 48 28 27 20 11 2 354 353 345 339 341 331 327 323 317 322 340 347 334 338 341 334 329 323 313
121 119 117 123 130 128 122 116 109 100 94 93 89 85 78 67 64 62 47 28 21 20 12 6 2 352 348 349 340 335 326 324 332 342 346 340 341 337 342 336 333 330 324
120 119 118 122 126 129 125 114 108 104 101 95 89 85 77 69 56 48 45 31 20 23 15 11 3 360 355 350 346 338 334 339 327 344 336 335 329 332 330 334 328 327 324
110 111 113 111 114 119 121 119 117 114 105 99 94 81 67 62 54 45 39 34 27 23 14 14 8 1 352 353 353 334 332 325 343 324 325 318 327 329 328 323 320 317 318
104 108 111 114 115 118 119 118 116 112 107 101 86 72 64 52 49 45 38 36 29 23 12 9 3 360 350 347 351 340 342 316 320 323 319 315 322 320 317 314 315 315 314
115 117 115 117 119 126 133 135 127 121 112 107 100 95 56 36 40 49 41 39 27 19 8 3 356 351 344 333 334 331 325 318 322 317 302 311 312 309 309 311 309 312 318
116 115 114 113 110 111 115 122 122 119 118 116 106 99 94 69 28 36 38 31 16 7 359 354 347 340 332 323 321 326 318 315 313 305 308 313 307 308 306 305 316 311 311
120 119 118 114 110 115 119 121 122 123 121 111 103 89 78 68 32 15 22 19 7 357 352 345 338 329 322 315 314 314 309 310 308 306 303 307 304 308 303 309 304 307 312